Pardubice, Czech Republic

5:50 AM CEST on May 30, 2017 (GMT +0200)
Pardubice

Weather History for LKPD - November, 2013

Change the Weather History Date:

Saturday, November 2, 2013

  Actual Average Record
Temperature  
Mean Temperature 49 °F -  
Max Temperature 57 °F - - ()
Min Temperature 41 °F - - ()
Degree Days  
Heating Degree Days 16    
Moisture  
Dew Point 45 °F    
Average Humidity 85    
Maximum Humidity 93    
Minimum Humidity 67    
Precipitation  
Precipitation 0.00 in - - ()
Sea Level Pressure  
Sea Level Pressure 29.82 in    
Wind  
Wind Speed 4 mph ()    
Max Wind Speed 12 mph    
Max Gust Speed -    
Visibility 5.3 miles    
Events Rain    
T = Trace of Precipitation, MM = Missing Value Source: Averaged Metar Reports

Daily Weather History Graph

Daily Weather History Graph

Search for Another Location

Airport or City:

Trip Planner

Search our weather history database for the weather conditions in past years. The results will help you decide how hot, cold, wet, or windy it might be!

Date:

Astronomy

Nov. 02, 2013 Rise Set
Actual Time 6:48 AM CET 4:32 PM CET
Civil Twilight 6:14 AM CET 5:06 PM CET
Nautical Twilight 5:36 AM CET 5:44 PM CET
Astronomical Twilight 4:58 AM CET 6:21 PM CET
Moon 5:20 AM CET (11/2) 3:55 PM CET (11/2)
Length of Visible Light 10h 51m
Length of Day
9h 43m
Waning Crescent, 2% of the Moon is Illuminated
Nov 2
Waning Crescent
Nov 3
New
Nov 10
First Quarter
Nov 17
Full
Nov 25
Last Quarter

Hourly Weather History & Observations

Time (CET) Temp. Windchill Dew Point Humidity Pressure Visibility Wind Dir Wind Speed Gust Speed Precip Events Conditions
12:00 AM 41.0 °F 39.0 °F 39.2 °F 93% 30.01 in - East 3.5 mph - N/A   Clear
1:00 AM 42.8 °F 40.1 °F 41.0 °F 93% 29.98 in - East 4.6 mph - N/A   Clear
2:00 AM 42.8 °F 41.1 °F 41.0 °F 93% 29.95 in - East 3.5 mph - N/A   Clear
3:00 AM 41.0 °F - 39.2 °F 93% 29.92 in - Variable 1.2 mph - N/A   Clear
4:00 AM 41.0 °F - 39.2 °F 93% 29.89 in - Calm Calm - N/A   Clear
5:00 AM 41.0 °F - 39.2 °F 93% 29.89 in - Variable 1.2 mph - N/A   Clear
6:00 AM 41.0 °F - 39.2 °F 93% 29.86 in - East 2.3 mph - N/A   Clear
7:00 AM 44.6 °F - 42.8 °F 93% 29.86 in - Calm Calm - N/A   Clear
8:00 AM 48.2 °F - 44.6 °F 87% 29.83 in - NE 5.8 mph - N/A   Clear
9:00 AM 48.2 °F - 44.6 °F 87% 29.83 in - ENE 4.6 mph - N/A   Clear
10:00 AM 48.2 °F - 44.6 °F 87% 29.83 in 4.3 mi Variable 1.2 mph - N/A   Overcast
11:00 AM 51.8 °F - 46.4 °F 82% 29.83 in 4.3 mi ESE 5.8 mph - N/A   Overcast
12:00 PM 51.8 °F - 46.4 °F 82% 29.80 in 4.3 mi South 2.3 mph - N/A Rain Light Rain
1:00 PM 51.8 °F - 48.2 °F 88% 29.77 in 3.7 mi SSE 3.5 mph - N/A Rain Light Rain
2:00 PM 51.8 °F - 48.2 °F 88% 29.74 in 5.0 mi ESE 6.9 mph - N/A   Overcast
3:00 PM 53.6 °F - 48.2 °F 82% 29.74 in 6.2 mi ESE 5.8 mph - N/A   Mostly Cloudy
4:00 PM 57.2 °F - 46.4 °F 67% 29.71 in 6.2 mi SW 5.8 mph - N/A   Mostly Cloudy
5:00 PM 55.4 °F - 48.2 °F 77% 29.74 in 6.2 mi SW 5.8 mph - N/A   Mostly Cloudy
6:00 PM 57.2 °F - 48.2 °F 72% 29.74 in 6.2 mi SW 5.8 mph - N/A   Overcast
7:00 PM 55.4 °F - 48.2 °F 77% 29.74 in 6.2 mi SW 8.1 mph - N/A   Overcast
8:00 PM 55.4 °F - 48.2 °F 77% 29.74 in 6.2 mi SW 9.2 mph - N/A   Overcast
9:00 PM 55.4 °F - 50.0 °F 82% 29.74 in - SW 9.2 mph - N/A   Clear
10:00 PM 55.4 °F - 50.0 °F 82% 29.74 in - SW 8.1 mph - N/A   Clear
11:00 PM 55.4 °F - 50.0 °F 82% 29.77 in - SW 11.5 mph - N/A   Clear